User: anonymous   Login
Location: ????????
(54.9045°N, 39.1041°E)
Time: 00:24:40
(UTC+00:00)
Language:

Cosmos 1140 Rocket - Orbit

View from above orbital plane
View from above orbital plane
View from above satellite
View from above satellite

Ground track
Ground track

The orbit data is extracted from the following two-line orbital elements,

1 11574U 79089B   24259.54994666  .00001475  00000-0  45950-3 0  9995
2 11574  74.0717  10.4540 0016515 318.2943  41.6953 14.41714577358441
Epoch (UTC): 15 September 2024 13:11:55
Eccentricity: 0.0016515
inclination: 74.0717°
perigee height: 741 km
apogee height: 764 km
right ascension of ascending node: 10.4540°
argument of perigee: 318.2943°
revolutions per day: 14.41714577
mean anomaly at epoch: 41.6953°
orbit number at epoch: 35844

The dashed part of the orbit path shows where the satellite is in the earth's shadow,  

DLR